Time,TemperatureF,DewpointF,PressureIn,WindDirection,WindDirectionDegrees,WindSpeedMPH,WindSpeedGustMPH,Humidity,HourlyPrecipIn,Conditions,Clouds,dailyrainin,SoftwareType,DateUTC
2013-05-19 05:12:00,60.0,56.0,29.94,North,0,0.0,0.0,87,0.00,,,0.00,,2013-05-19 10:12:00,
2013-05-19 05:23:00,60.0,56.0,29.94,North,0,0.0,0.0,87,0.00,,,0.00,,2013-05-19 10:23:00,
2013-05-19 05:33:00,60.0,56.0,29.94,North,0,0.0,0.0,87,0.00,,,0.00,,2013-05-19 10:33:00,
2013-05-19 05:42:00,60.0,56.0,29.94,North,0,0.0,0.0,87,0.00,,,0.00,,2013-05-19 10:42:00,
2013-05-19 05:52:00,60.0,56.0,29.93,North,0,0.0,0.0,88,0.00,,,0.00,,2013-05-19 10:52:00,
2013-05-19 06:02:00,59.0,55.0,29.93,North,0,0.0,0.0,88,0.00,,,0.00,,2013-05-19 11:02:00,
2013-05-19 06:11:00,59.0,55.0,29.93,North,0,0.0,0.0,88,0.00,,,0.00,,2013-05-19 11:11:00,
2013-05-19 06:21:00,60.0,56.0,29.93,North,0,0.0,0.0,88,0.00,,,0.00,,2013-05-19 11:21:00,
2013-05-19 06:32:00,60.0,56.0,29.93,North,0,0.0,0.0,88,0.00,,,0.00,,2013-05-19 11:32:00,
2013-05-19 06:42:00,60.0,56.0,29.93,North,0,0.0,0.0,88,0.00,,,0.00,,2013-05-19 11:42:00,
2013-05-19 06:52:00,61.0,57.0,29.93,SSE,156,0.0,2.0,88,0.00,,,0.00,,2013-05-19 11:52:00,
2013-05-19 07:01:00,62.0,58.0,29.92,North,0,0.0,0.0,88,0.00,,,0.00,,2013-05-19 12:01:00,
2013-05-19 07:11:00,62.0,58.0,29.92,North,0,0.0,0.0,88,0.00,,,0.00,,2013-05-19 12:11:00,
2013-05-19 07:21:00,63.0,59.0,29.93,North,0,0.0,0.0,88,0.00,,,0.00,,2013-05-19 12:21:00,
2013-05-19 07:32:00,64.0,60.0,29.94,SE,146,0.0,4.0,87,0.00,,,0.00,,2013-05-19 12:32:00,
2013-05-19 07:41:00,64.0,60.0,29.94,SE,146,0.0,4.0,87,0.00,,,0.00,,2013-05-19 12:41:00,
2013-05-19 07:52:00,65.0,61.0,29.93,SSE,165,0.0,3.0,87,0.00,,,0.00,,2013-05-19 12:52:00,
2013-05-19 08:01:00,65.0,60.0,29.94,SSE,159,1.0,4.0,85,0.00,,,0.00,,2013-05-19 13:01:00,
2013-05-19 08:11:00,65.0,60.0,29.94,SSE,159,1.0,4.0,85,0.00,,,0.00,,2013-05-19 13:11:00,
2013-05-19 08:21:00,66.0,61.0,29.94,SSE,156,1.0,4.0,84,0.00,,,0.00,,2013-05-19 13:21:00,
2013-05-19 08:32:00,66.0,61.0,29.94,SSE,156,2.0,4.0,84,0.00,,,0.00,,2013-05-19 13:32:00,
2013-05-19 08:42:00,66.0,61.0,29.94,SSE,156,2.0,4.0,84,0.00,,,0.00,,2013-05-19 13:42:00,
2013-05-19 08:52:00,67.0,62.0,29.94,SSE,163,0.0,3.0,83,0.00,,,0.00,,2013-05-19 13:52:00,
2013-05-19 09:02:00,69.0,63.0,29.93,SSE,159,0.0,3.0,81,0.00,,,0.00,,2013-05-19 14:02:00,
2013-05-19 09:11:00,69.0,63.0,29.93,SSE,159,0.0,3.0,81,0.00,,,0.00,,2013-05-19 14:11:00,
2013-05-19 09:21:00,70.0,64.0,29.91,SSE,154,1.0,3.0,80,0.00,,,0.00,,2013-05-19 14:21:00,
2013-05-19 09:32:00,71.0,64.0,29.92,SSE,156,1.0,3.0,78,0.00,,,0.00,,2013-05-19 14:32:00,
2013-05-19 09:41:00,71.0,64.0,29.92,SSE,156,1.0,3.0,78,0.00,,,0.00,,2013-05-19 14:41:00,
2013-05-19 09:51:00,71.0,63.0,29.92,SSE,166,0.0,3.0,77,0.00,,,0.00,,2013-05-19 14:51:00,
2013-05-19 10:01:00,72.0,64.0,29.91,SSE,154,0.0,4.0,76,0.00,,,0.00,,2013-05-19 15:01:00,
2013-05-19 10:11:00,72.0,64.0,29.91,SSE,154,0.0,4.0,76,0.00,,,0.00,,2013-05-19 15:11:00,
2013-05-19 10:21:00,73.0,65.0,29.90,SSE,157,1.0,4.0,76,0.00,,,0.00,,2013-05-19 15:21:00,
2013-05-19 10:33:00,72.0,64.0,29.90,SSE,155,2.0,6.0,75,0.00,,,0.00,,2013-05-19 15:33:00,
2013-05-19 10:43:00,72.0,64.0,29.90,SSE,155,2.0,6.0,75,0.00,,,0.00,,2013-05-19 15:43:00,
2013-05-19 10:53:00,73.0,64.0,29.89,SSE,157,3.0,9.0,74,0.00,,,0.00,,2013-05-19 15:53:00,
2013-05-19 11:03:00,74.0,65.0,29.88,SSE,163,3.0,6.0,74,0.00,,,0.00,,2013-05-19 16:03:00,
2013-05-19 11:12:00,74.0,65.0,29.88,SSE,163,3.0,6.0,74,0.00,,,0.00,,2013-05-19 16:12:00,
2013-05-19 11:23:00,76.0,65.0,29.85,SE,144,2.0,8.0,69,0.00,,,0.00,,2013-05-19 16:23:00,
2013-05-19 11:32:00,78.0,67.0,29.85,SSE,162,2.0,6.0,68,0.00,,,0.00,,2013-05-19 16:32:00,
2013-05-19 11:42:00,78.0,67.0,29.85,SSE,162,2.0,6.0,68,0.00,,,0.00,,2013-05-19 16:42:00,
2013-05-19 11:52:00,79.0,66.0,29.84,SE,143,2.0,5.0,65,0.00,,,0.00,,2013-05-19 16:52:00,
2013-05-19 12:02:00,80.0,66.0,29.85,SSE,163,4.0,10.0,63,0.00,,,0.00,,2013-05-19 17:02:00,
2013-05-19 12:12:00,80.0,66.0,29.85,SSE,163,4.0,10.0,63,0.00,,,0.00,,2013-05-19 17:12:00,
2013-05-19 12:22:00,80.0,66.0,29.84,SSE,156,3.0,8.0,62,0.00,,,0.00,,2013-05-19 17:22:00,
2013-05-19 12:32:00,80.0,66.0,29.82,SSE,160,4.0,8.0,62,0.00,,,0.00,,2013-05-19 17:32:00,
2013-05-19 12:42:00,80.0,66.0,29.82,SSE,160,4.0,8.0,62,0.00,,,0.00,,2013-05-19 17:42:00,
2013-05-19 12:52:00,79.0,65.0,29.80,SSE,149,2.0,6.0,63,0.00,,,0.00,,2013-05-19 17:52:00,
2013-05-19 13:02:00,79.0,65.0,29.80,SSE,147,1.0,5.0,63,0.00,,,0.00,,2013-05-19 18:02:00,
2013-05-19 13:12:00,79.0,65.0,29.80,SSE,147,1.0,5.0,63,0.00,,,0.00,,2013-05-19 18:12:00,
2013-05-19 13:22:00,81.0,66.0,29.80,SE,138,1.0,4.0,61,0.00,,,0.00,,2013-05-19 18:22:00,
2013-05-19 13:32:00,83.0,67.0,29.80,SSE,158,2.0,6.0,59,0.00,,,0.00,,2013-05-19 18:32:00,
2013-05-19 13:42:00,83.0,67.0,29.80,SSE,158,2.0,6.0,59,0.00,,,0.00,,2013-05-19 18:42:00,
2013-05-19 13:52:00,83.0,66.0,29.81,SSE,168,3.0,7.0,57,0.00,,,0.00,,2013-05-19 18:52:00,
2013-05-19 14:01:00,82.0,66.0,29.81,SSE,160,3.0,7.0,58,0.00,,,0.00,,2013-05-19 19:01:00,
2013-05-19 14:11:00,82.0,66.0,29.81,SSE,160,3.0,7.0,58,0.00,,,0.00,,2013-05-19 19:11:00,
2013-05-19 14:22:00,82.0,66.0,29.81,SSE,160,3.0,9.0,58,0.00,,,0.00,,2013-05-19 19:22:00,
2013-05-19 14:32:00,82.0,66.0,29.82,SSE,163,3.0,7.0,58,0.00,,,0.00,,2013-05-19 19:32:00,
2013-05-19 14:42:00,82.0,66.0,29.82,SSE,163,3.0,7.0,58,0.00,,,0.00,,2013-05-19 19:42:00,
2013-05-19 14:52:00,82.0,66.0,29.82,SSE,160,4.0,11.0,59,0.00,,,0.00,,2013-05-19 19:52:00,
2013-05-19 15:02:00,82.0,66.0,29.82,SSE,164,4.0,15.0,59,0.00,,,0.00,,2013-05-19 20:02:00,
2013-05-19 15:11:00,82.0,66.0,29.82,SSE,164,4.0,15.0,59,0.00,,,0.00,,2013-05-19 20:11:00,
2013-05-19 15:21:00,82.0,66.0,29.81,SSE,158,4.0,9.0,59,0.00,,,0.00,,2013-05-19 20:21:00,
2013-05-19 15:32:00,83.0,67.0,29.81,SSE,159,3.0,9.0,59,0.00,,,0.00,,2013-05-19 20:32:00,
2013-05-19 15:41:00,83.0,67.0,29.81,SSE,159,3.0,9.0,59,0.00,,,0.00,,2013-05-19 20:41:00,
2013-05-19 15:52:00,84.0,67.0,29.80,SSE,156,3.0,10.0,57,0.00,,,0.00,,2013-05-19 20:52:00,
2013-05-19 16:02:00,85.0,68.0,29.81,SSE,165,3.0,12.0,56,0.00,,,0.00,,2013-05-19 21:02:00,
2013-05-19 16:11:00,85.0,68.0,29.81,SSE,165,3.0,12.0,56,0.00,,,0.00,,2013-05-19 21:11:00,
2013-05-19 16:22:00,85.0,68.0,29.80,SSE,160,4.0,11.0,56,0.00,,,0.00,,2013-05-19 21:22:00,
2013-05-19 16:32:00,86.0,67.0,29.79,SSE,163,4.0,9.0,53,0.00,,,0.00,,2013-05-19 21:32:00,
2013-05-19 16:43:00,86.0,67.0,29.79,SSE,163,4.0,9.0,53,0.00,,,0.00,,2013-05-19 21:43:00,
2013-05-19 16:53:00,86.0,67.0,29.79,SSE,164,4.0,11.0,53,0.00,,,0.00,,2013-05-19 21:53:00,
2013-05-19 17:03:00,86.0,66.0,29.78,SSE,165,3.0,12.0,52,0.00,,,0.00,,2013-05-19 22:03:00,
2013-05-19 17:12:00,86.0,66.0,29.78,SSE,165,3.0,12.0,52,0.00,,,0.00,,2013-05-19 22:12:00,
2013-05-19 17:23:00,86.0,66.0,29.78,SSE,160,3.0,8.0,52,0.00,,,0.00,,2013-05-19 22:23:00,
2013-05-19 17:33:00,85.0,66.0,29.76,SSE,155,3.0,10.0,53,0.00,,,0.00,,2013-05-19 22:33:00,
2013-05-19 17:42:00,85.0,66.0,29.76,SSE,155,3.0,10.0,53,0.00,,,0.00,,2013-05-19 22:42:00,
2013-05-19 17:52:00,85.0,66.0,29.76,SSE,162,2.0,6.0,54,0.00,,,0.00,,2013-05-19 22:52:00,
2013-05-19 18:02:00,85.0,66.0,29.74,SE,145,1.0,5.0,53,0.00,,,0.00,,2013-05-19 23:02:00,
2013-05-19 18:11:00,85.0,66.0,29.74,SE,145,1.0,5.0,53,0.00,,,0.00,,2013-05-19 23:11:00,
2013-05-19 18:21:00,85.0,66.0,29.74,SSE,153,2.0,8.0,53,0.00,,,0.00,,2013-05-19 23:21:00,
2013-05-19 18:32:00,85.0,66.0,29.74,SE,132,0.0,3.0,54,0.00,,,0.00,,2013-05-19 23:32:00,
2013-05-19 18:42:00,84.0,66.0,29.74,SSE,151,1.0,5.0,54,0.00,,,0.00,,2013-05-19 23:42:00,
2013-05-19 18:52:00,84.0,66.0,29.74,SSE,151,1.0,5.0,54,0.00,,,0.00,,2013-05-19 23:52:00,
2013-05-19 19:02:00,84.0,66.0,29.73,SSE,156,0.0,6.0,54,0.00,,,0.00,,2013-05-20 00:02:00,
2013-05-19 19:11:00,84.0,66.0,29.73,SSE,156,0.0,6.0,54,0.00,,,0.00,,2013-05-20 00:11:00,
2013-05-19 19:21:00,83.0,65.0,29.73,SE,146,0.0,4.0,55,0.00,,,0.00,,2013-05-20 00:21:00,
2013-05-19 19:32:00,82.0,64.0,29.72,SE,130,2.0,6.0,54,0.00,,,0.00,,2013-05-20 00:32:00,
2013-05-19 19:42:00,82.0,64.0,29.72,SE,130,2.0,6.0,54,0.00,,,0.00,,2013-05-20 00:42:00,
2013-05-19 19:52:00,81.0,62.0,29.73,SSE,152,2.0,6.0,52,0.00,,,0.00,,2013-05-20 00:52:00,
2013-05-19 20:01:00,79.0,59.0,29.75,SSE,153,2.0,6.0,51,0.00,,,0.00,,2013-05-20 01:01:00,
2013-05-19 20:11:00,79.0,59.0,29.75,SSE,153,2.0,6.0,51,0.00,,,0.00,,2013-05-20 01:11:00,
2013-05-19 20:21:00,78.0,59.0,29.76,SSE,154,1.0,4.0,53,0.00,,,0.00,,2013-05-20 01:21:00,
2013-05-19 20:31:00,76.0,58.0,29.77,SSE,156,2.0,10.0,54,0.00,,,0.00,,2013-05-20 01:31:00,
2013-05-19 20:42:00,76.0,58.0,29.77,SSE,156,2.0,10.0,54,0.00,,,0.00,,2013-05-20 01:42:00,
2013-05-19 20:52:00,75.0,58.0,29.76,SSE,159,1.0,4.0,55,0.00,,,0.00,,2013-05-20 01:52:00,
2013-05-19 21:02:00,74.0,58.0,29.75,North,0,0.0,0.0,58,0.00,,,0.00,,2013-05-20 02:02:00,
2013-05-19 21:11:00,74.0,58.0,29.75,North,0,0.0,0.0,58,0.00,,,0.00,,2013-05-20 02:11:00,
2013-05-19 21:21:00,72.0,57.0,29.75,North,0,0.0,0.0,60,0.00,,,0.00,,2013-05-20 02:21:00,
2013-05-19 21:31:00,72.0,57.0,29.74,ENE,68,0.0,2.0,60,0.00,,,0.00,,2013-05-20 02:31:00,
2013-05-19 21:42:00,72.0,57.0,29.74,ENE,68,0.0,2.0,60,0.00,,,0.00,,2013-05-20 02:42:00,
2013-05-19 21:51:00,72.0,58.0,29.73,ESE,112,0.0,2.0,61,0.00,,,0.00,,2013-05-20 02:51:00,
2013-05-19 22:01:00,72.0,58.0,29.73,ESE,112,0.0,2.0,61,0.00,,,0.00,,2013-05-20 03:01:00,
2013-05-19 22:11:00,72.0,58.0,29.73,ESE,112,0.0,2.0,61,0.00,,,0.00,,2013-05-20 03:11:00,
2013-05-19 22:21:00,72.0,58.0,29.73,ESE,112,0.0,2.0,61,0.00,,,0.00,,2013-05-20 03:21:00,